• In Uzbekistan
  • List of Countries
  • For 7 days
  • Water Temperature
  • Satellite Maps
  • Weather Map
  • Weather Widgets
  • user-avatar
    Login

    Hourly Weather Ostrusza

    Today, 22 September, Saturday

    Time Temperature Precipitation Wind Pressure Humidity
    00:00 +17°C° 0 mm 3 mps 732 mmHg 63%
    01:00 +17°C° 0 mm 2 mps 732 mmHg 62%
    02:00 +17°C° 0 mm 3 mps 733 mmHg 64%
    03:00 +17°C° 0 mm 3 mps 733 mmHg 65%
    04:00 +17°C° 0 mm 4 mps 734 mmHg 67%
    05:00 +15°C° 0.6 mm 4 mps 734 mmHg 74%
    06:00 +14°C° 0.6 mm 4 mps 735 mmHg 81%
    07:00 +12°C° 0 mm 4 mps 736 mmHg 86%
    08:00 +12°C° 1.1 mm 4 mps 736 mmHg 87%
    09:00 +11°C° 1.1 mm 3 mps 737 mmHg 87%
    10:00 +12°C° 1.1 mm 2 mps 737 mmHg 87%
    11:00 +13°C° 0.6 mm 2 mps 737 mmHg 82%
    12:00 +13°C° 0.6 mm 2 mps 737 mmHg 77%
    13:00 +14°C° 0 mm 2 mps 738 mmHg 72%
    14:00 +15°C° 0 mm 2 mps 738 mmHg 67%
    15:00 +15°C° 0 mm 2 mps 737 mmHg 63%
    16:00 +16°C° 0 mm 3 mps 737 mmHg 59%
    17:00 +15°C° 0 mm 2 mps 737 mmHg 63%
    18:00 +13°C° 0 mm 2 mps 737 mmHg 67%
    19:00 +12°C° 0 mm 2 mps 737 mmHg 71%
    20:00 +12°C° 0 mm 2 mps 737 mmHg 70%
    21:00 +12°C° 0 mm 2 mps 737 mmHg 70%
    22:00 +12°C° 0 mm 2 mps 738 mmHg 70%
    23:00 +12°C° 0 mm 2 mps 738 mmHg 70%

    Tomorrow, 23 September, Sunday

    Time Temperature Precipitation Wind Pressure Humidity
    00:00 +12°C° 0 mm 2 mps 737 mmHg 70%
    01:00 +12°C° 0 mm 2 mps 737 mmHg 71%
    02:00 +12°C° 0 mm 2 mps 737 mmHg 72%
    03:00 +10°C° 0 mm 2 mps 737 mmHg 74%
    04:00 +10°C° 0 mm 2 mps 737 mmHg 76%
    05:00 +10°C° 0 mm 3 mps 737 mmHg 75%
    06:00 +11°C° 0 mm 3 mps 737 mmHg 74%
    07:00 +11°C° 0 mm 3 mps 736 mmHg 72%
    08:00 +13°C° 0 mm 3 mps 736 mmHg 66%
    09:00 +14°C° 0 mm 3 mps 736 mmHg 59%
    10:00 +17°C° 0 mm 4 mps 736 mmHg 52%
    11:00 +17°C° 0 mm 4 mps 736 mmHg 52%
    12:00 +17°C° 0 mm 4 mps 736 mmHg 52%
    13:00 +18°C° 0 mm 4 mps 735 mmHg 53%
    14:00 +17°C° 0 mm 3 mps 735 mmHg 57%
    15:00 +17°C° 0 mm 3 mps 734 mmHg 61%
    16:00 +16°C° 0 mm 2 mps 733 mmHg 66%
    17:00 +16°C° 0 mm 3 mps 732 mmHg 67%
    18:00 +14°C° 0 mm 3 mps 732 mmHg 69%
    19:00 +13°C° 0 mm 4 mps 731 mmHg 71%
    20:00 +14°C° 0.1 mm 5 mps 730 mmHg 70%
    21:00 +14°C° 0.1 mm 6 mps 728 mmHg 68%
    22:00 +15°C° 0.1 mm 7 mps 727 mmHg 66%
    23:00 +15°C° 0.9 mm 7 mps 726 mmHg 71%

    Day after tomorrow, 24 September, Monday

    Time Temperature Precipitation Wind Pressure Humidity
    00:00 +15°C° 0.9 mm 7 mps 726 mmHg 76%
    01:00 +15°C° 0.9 mm 7 mps 725 mmHg 81%
    02:00 +15°C° 2.8 mm 7 mps 725 mmHg 84%
    03:00 +14°C° 2.8 mm 7 mps 726 mmHg 87%
    04:00 +14°C° 2.8 mm 7 mps 726 mmHg 90%
    05:00 +11°C° 0.4 mm 7 mps 728 mmHg 88%
    06:00 +10°C° 0.4 mm 8 mps 729 mmHg 86%
    07:00 +7°C° 0.4 mm 8 mps 731 mmHg 84%
    08:00 +7°C° 0.2 mm 8 mps 732 mmHg 82%
    09:00 +9°C° 0.2 mm 8 mps 733 mmHg 79%
    10:00 +9°C° 0.2 mm 8 mps 734 mmHg 77%
    11:00 +10°C° 0.2 mm 8 mps 735 mmHg 70%
    12:00 +11°C° 0.2 mm 8 mps 735 mmHg 63%
    13:00 +11°C° 0.2 mm 9 mps 736 mmHg 56%
    14:00 +11°C° 0.1 mm 8 mps 736 mmHg 57%
    15:00 +10°C° 0.1 mm 8 mps 737 mmHg 59%
    16:00 +9°C° 0.1 mm 7 mps 737 mmHg 60%
    17:00 +8°C° 0 mm 7 mps 737 mmHg 63%
    18:00 +7°C° 0 mm 6 mps 738 mmHg 65%
    19:00 +6°C° 0 mm 5 mps 738 mmHg 68%
    20:00 +5°C° 0.1 mm 6 mps 739 mmHg 69%
    21:00 +5°C° 0.1 mm 6 mps 739 mmHg 70%
    22:00 +4°C° 0.1 mm 6 mps 739 mmHg 72%
    23:00 +4°C° 0.4 mm 6 mps 740 mmHg 76%

    25 September, Tuesday

    Time Temperature Precipitation Wind Pressure Humidity
    00:00 +5°C° 0.4 mm 5 mps 740 mmHg 80%
    01:00 +5°C° 0.4 mm 5 mps 741 mmHg 84%
    02:00 +5°C° 0 mm 5 mps 741 mmHg 85%
    03:00 +4°C° 0 mm 4 mps 742 mmHg 86%
    04:00 +4°C° 0 mm 4 mps 742 mmHg 86%
    05:00 +4°C° 0 mm 4 mps 743 mmHg 85%
    06:00 +3°C° 0 mm 5 mps 744 mmHg 84%
    07:00 +3°C° 0 mm 5 mps 744 mmHg 83%
    08:00 +6°C° 0.1 mm 5 mps 745 mmHg 75%
    09:00 +7°C° 0.1 mm 6 mps 745 mmHg 67%
    10:00 +8°C° 0.1 mm 6 mps 746 mmHg 59%
    11:00 +9°C° 0.1 mm 6 mps 746 mmHg 57%
    12:00 +9°C° 0.1 mm 6 mps 746 mmHg 54%
    13:00 +9°C° 0.1 mm 6 mps 746 mmHg 52%
    14:00 +9°C° 0.1 mm 6 mps 746 mmHg 53%
    15:00 +9°C° 0.1 mm 5 mps 746 mmHg 54%
    16:00 +9°C° 0.1 mm 5 mps 746 mmHg 55%
    17:00 +7°C° 0 mm 4 mps 747 mmHg 60%
    18:00 +7°C° 0 mm 3 mps 747 mmHg 65%
    19:00 +5°C° 0 mm 2 mps 748 mmHg 70%
    20:00 +5°C° 0 mm 2 mps 748 mmHg 71%
    21:00 +4°C° 0 mm 2 mps 749 mmHg 72%
    22:00 +4°C° 0 mm 2 mps 749 mmHg 73%
    23:00 +4°C° 0 mm 2 mps 750 mmHg 74%

    26 September, Wednesday

    Time Temperature Precipitation Wind Pressure Humidity
    00:00 +3°C° 0 mm 2 mps 750 mmHg 75%
    01:00 +4°C° 0 mm 1 mps 750 mmHg 75%
    02:00 +4°C° 0 mm 1 mps 750 mmHg 76%
    03:00 +3°C° 0 mm 1 mps 750 mmHg 76%
    04:00 +3°C° 0 mm 1 mps 750 mmHg 77%
    05:00 +4°C° 0 mm 1 mps 750 mmHg 74%
    06:00 +5°C° 0 mm 1 mps 750 mmHg 70%
    07:00 +6°C° 0 mm 1 mps 750 mmHg 67%
    08:00 +7°C° 0 mm 2 mps 750 mmHg 58%
    09:00 +9°C° 0 mm 2 mps 750 mmHg 49%
    10:00 +13°C° 0 mm 2 mps 750 mmHg 41%
    11:00 +13°C° 0 mm 2 mps 749 mmHg 38%
    12:00 +14°C° 0 mm 2 mps 749 mmHg 36%
    13:00 +14°C° 0 mm 3 mps 748 mmHg 34%
    14:00 +15°C° 0 mm 2 mps 748 mmHg 39%
    15:00 +15°C° 0 mm 2 mps 747 mmHg 44%
    16:00 +15°C° 0 mm 2 mps 746 mmHg 49%
    17:00 +13°C° 0 mm 2 mps 746 mmHg 54%
    18:00 +10°C° 0 mm 2 mps 746 mmHg 59%
    19:00 +8°C° 0 mm 2 mps 746 mmHg 64%
    20:00 +8°C° 0 mm 2 mps 746 mmHg 64%
    21:00 +8°C° 0 mm 2 mps 746 mmHg 64%
    22:00 +8°C° 0 mm 2 mps 746 mmHg 64%
    23:00 +8°C° 0 mm 2 mps 745 mmHg 65%

    27 September, Thursday

    Time Temperature Precipitation Wind Pressure Humidity
    00:00 +7°C° 0 mm 2 mps 745 mmHg 65%
    01:00 +7°C° 0 mm 3 mps 745 mmHg 66%
    02:00 +5°C° 0 mm 3 mps 744 mmHg 65%
    03:00 +5°C° 0 mm 3 mps 744 mmHg 65%
    04:00 +5°C° 0 mm 3 mps 744 mmHg 65%
    05:00 +5°C° 0 mm 3 mps 743 mmHg 63%
    06:00 +7°C° 0 mm 3 mps 743 mmHg 61%
    07:00 +8°C° 0 mm 3 mps 743 mmHg 59%
    08:00 +10°C° 0 mm 3 mps 743 mmHg 54%
    09:00 +12°C° 0 mm 3 mps 743 mmHg 48%
    10:00 +15°C° 0 mm 4 mps 743 mmHg 42%
    11:00 +17°C° 0 mm 4 mps 742 mmHg 40%
    12:00 +18°C° 0 mm 4 mps 742 mmHg 38%
    13:00 +20°C° 0 mm 4 mps 741 mmHg 36%
    14:00 +19°C° 0 mm 3 mps 741 mmHg 40%
    15:00 +19°C° 0 mm 3 mps 741 mmHg 44%
    16:00 +18°C° 0 mm 3 mps 740 mmHg 48%
    17:00 +16°C° 0 mm 2 mps 740 mmHg 52%
    18:00 +15°C° 0 mm 2 mps 740 mmHg 56%
    19:00 +13°C° 0 mm 2 mps 740 mmHg 60%
    20:00 +12°C° 0 mm 2 mps 740 mmHg 62%
    21:00 +12°C° 0 mm 2 mps 740 mmHg 63%
    22:00 +10°C° 0 mm 2 mps 739 mmHg 65%
    23:00 +10°C° 0 mm 2 mps 739 mmHg 65%
    Show more